Regional Weather Roundup
Issued by NWS Little Rock, AR

Home | Current Version | Previous Version | Graphics & Text | Print | Product List | Glossary On
Versions: 1 2 3 4 5 6 7 8 9 10 11 12 13 14 15 16 17 18 19 20 21 22 23 24 25 26 27 28 29 30 31 32 33 34 35 36 37 38 39 40 41 42 43 44 45 46 47 48 49 50
000
ASUS44 KLZK 240105
RWRLZK

WEATHER ROUNDUP FOR ARKANSAS
NATIONAL WEATHER SERVICE LITTLE ROCK AR
700 PM CST TUE DEC 23 2014

NOTE: "FAIR" INDICATES FEW OR NO CLOUDS BELOW 12,000 FEET WITH NO
SIGNIFICANT WEATHER AND/OR OBSTRUCTIONS TO VISIBILITY.

ARZ001-003-010-029-240200-
NORTHWEST ARKANSAS

CITY           SKY/WX    TMP DP  RH WIND       PRES   REMARKS
FAYETTEVILLE   CLOUDY    40  33  76 N5        29.79R
FORT SMITH     CLOUDY    46  32  58 NW9       29.81R
HARRISON       CLOUDY    40  35  83 NW7       29.77R
BENTONVILLE    CLOUDY    39  30  70 NW12      29.80R
ROGERS         CLOUDY    39  32  75 NW13      29.79R
SILOAM SPGS    CLOUDY    39  27  60 N14G20    29.81R
HIGHFILL       CLOUDY    39  31  72 NW10      29.79R
SPRINGDALE     CLOUDY    39  32  75 NW7       29.80R
$$

ARZ004-005-016-240200-
NORTH CENTRAL ARKANSAS

CITY           SKY/WX    TMP DP  RH WIND       PRES   REMARKS
BATESVILLE     CLOUDY    45  41  87 W3        29.74S
FLIPPIN        FAIR      43  34  70 NW6       29.77R
MTN HOME       FAIR      42  37  82 NW7       29.75R
$$

ARZ040-041-240200-
WEST CENTRAL ARKANSAS

CITY           SKY/WX    TMP DP  RH WIND       PRES   REMARKS
MENA           CLOUDY    45  36  70 CALM      29.80R
MOUNT IDA      FAIR      45  38  76 NW5       29.76R
$$

ARZ009-017-025-026-028-240200-
NORTHEAST ARKANSAS

CITY           SKY/WX    TMP DP  RH WIND       PRES   REMARKS
CORNING        CLOUDY    46  45  93 N6        29.74R
JONESBORO      CLOUDY    48  44  86 N5        29.70R
NEWPORT        CLOUDY    47  43  86 NW13      29.74R
WALNUT RIDGE   CLOUDY    46  41  81 NW9       29.71S
BLYTHEVILLE    CLOUDY    48  46  93 N10       29.69R
$$

ARZ022-023-033-042-044-240200-
CENTRAL ARKANSAS

CITY           SKY/WX    TMP DP  RH WIND       PRES   REMARKS
LITTLE ROCK    CLOUDY    48  42  80 NW8       29.76R
N LITTLE ROCK  CLOUDY    46  44  95 NW3       29.76R
JACKSONVILLE   CLOUDY    46  43  90 W3        29.75R
SEARCY         CLOUDY    47  44  90 CALM      29.76R
HOT SPRINGS    MOCLDY    45  44  97 W3        29.77R
RUSSELLVILLE   CLOUDY    47  42  83 SW3       29.76R
CLINTON        MOCLDY    45  45 100 CALM      29.77R
$$

ARZ036-240200-
EAST ARKANSAS

CITY           SKY/WX    TMP DP  RH WIND       PRES   REMARKS
WEST MEMPHIS   CLOUDY    48  46  93 N7        29.67F
$$

ARZ050-053-066-070-073-240200-
SOUTHWEST ARKANSAS

CITY           SKY/WX    TMP DP  RH WIND       PRES   REMARKS
ARKADELPHIA    FAIR      46  46 100 CALM      29.80R
CAMDEN         MOCLDY    46  43  87 MISG      29.76R
TEXARKANA      CLOUDY    48  43  82 W6        29.79R
EL DORADO      CLOUDY    46  44  93 NW6       29.76R
DE QUEEN       FAIR      47  39  74 NW5       29.80R
$$

ARZ056-057-069-240200-
SOUTHEAST ARKANSAS

CITY           SKY/WX    TMP DP  RH WIND       PRES   REMARKS
PINE BLUFF     CLOUDY    48  43  82 NW6       29.74R
STUTTGART      CLOUDY    48  43  81 NW8       29.73R
MONTICELLO     CLOUDY    50  41  71 NW5       29.72R

$$





USA.gov is the U.S. government's official web portal to all federal, state and local government web resources and services.